星链-34529 (STARLINK-34529)

导读 | 豆包AI

STARLINK-34529是美国太空探索技术公司SpaceX星链星座的一颗卫星,于2025年7月26日发射升空。星链星座旨在为全球用户提供覆盖偏远地区、高延迟环境的低轨卫星互联网服务,该卫星加入后进一步扩充了星链星座的在轨规模,提升星座的全球网络覆盖能力与服务稳定性。

基本信息
目录编号:
64936
目录名称:
STARLINK-34529
国际标识:
2025-158E
轨道中心:
EARTH
卫星名称:
星链-34529
卫星全名:
星链-34529 (STARLINK-34529)
卫星状态:
在轨 (已飞行231 天)
发射日期:
2025-07-26 UTC
国别 :
美国 (US)
星等 :
--
轨道信息
数据来源 国际轨道数据 AOE轨道数据
星历时间 2026-03-13T16:17:42+0800
1天前
查看轨道信息
2026-03-14T09:00:00+0800
13小时前
查看轨道信息
半长轴 6927.634km 6927.546km
偏心率 0.0002385 0.0002137
轨道倾角 97.603° 97.601°
近地点辐角 78.738° 81.100°
升交点赤经 297.652° 298.338°
平近点角 281.412° 89.512°
近地点 547.844km 547.928km
远地点 551.15km 550.89km
周期 95.639分钟 95.638分钟
每日圈数 15.056548 15.056834
详细信息
固有亮度:
5
最大亮度:
2.5
卫星平台:
Starlink V1.0
覆盖范围:
全球
运营商:
太空探索技术公司
运营商所在国:
美国
制造商(研发单位):
太空探索技术公司
制造商所在国:
美国
使用方式:
暂无
卫星简介
Starlink 计划是 SpaceX 推出的全球卫星互联网项目,通过发射低轨道卫星,为全球尤其是偏远地区提供高速、低延迟的互联网服务。自 2019 年起,Starlink 已部署数千颗卫星,旨在缩小全球数字鸿沟,推动互联网普及。该项目还为军事、航空等行业提供通信支持,带来广泛经济效益。
2D轨道图
3D轨道图
轨道高度分析图
轨道倾角分析图
轨道综合分析图
查看轨道综合分析图